User: anonymous   Login
Location: Unspecified
(0.0000°N, 0.0000°E)
Time: 11:04:12
(UTC+00:00)
Language:

SBIRS GEO 2 (USA 241) - Orbit

View from above orbital plane
View from above orbital plane
View from above satellite
View from above satellite

Ground track
Ground track

The orbit data is extracted from the following two-line orbital elements,

1 39120U 13011A   17302.73504611 0.00000000  00000-0  00000-0 0    04
2 39120   3.4358 323.4152 0000998 256.7050 103.3512  1.00270000    06
Epoch (UTC): 29 October 2017 17:38:27
Eccentricity: 0.0000998
inclination: 3.4358°
perigee height: 35782 km
apogee height: 35791 km
right ascension of ascending node: 323.4152°
argument of perigee: 256.7050°
revolutions per day: 1.00270000
mean anomaly at epoch: 103.3512°
orbit number at epoch: 0

The dashed part of the orbit path shows where the satellite is in the earth's shadow,  

DLR